Time,TemperatureF,DewpointF,PressureIn,WindDirection,WindDirectionDegrees,WindSpeedMPH,WindSpeedGustMPH,Humidity,HourlyPrecipIn,Conditions,Clouds,dailyrainin,SoftwareType,DateUTC
2013-07-01 00:00:00,70.1,60.7,29.76,ENE,61,0.0,0.0,72,0.00,,---,0.00,VWS V14.01,2013-07-01 07:00:00,
2013-07-01 00:02:00,70.1,60.7,29.77,ENE,62,0.0,0.0,72,0.00,,---,0.00,VWS V14.01,2013-07-01 07:02:00,
2013-07-01 00:07:00,70.0,60.6,29.77,ENE,61,0.0,0.0,72,0.00,,---,0.00,VWS V14.01,2013-07-01 07:07:00,
2013-07-01 00:12:00,69.9,60.5,29.78,ENE,61,0.0,0.0,72,0.00,,---,0.00,VWS V14.01,2013-07-01 07:12:00,
2013-07-01 00:17:00,69.8,60.4,29.78,ENE,61,0.0,0.0,72,0.00,,---,0.00,VWS V14.01,2013-07-01 07:17:00,
2013-07-01 00:22:00,69.7,60.3,29.78,ENE,62,0.0,0.0,72,0.00,,---,0.00,VWS V14.01,2013-07-01 07:22:00,
2013-07-01 00:27:00,69.5,60.5,29.78,ENE,61,0.0,0.0,73,0.00,,---,0.00,VWS V14.01,2013-07-01 07:27:00,
2013-07-01 00:30:00,69.4,60.4,29.78,ENE,62,0.0,0.0,73,0.00,,---,0.00,VWS V14.01,2013-07-01 07:30:00,
2013-07-01 00:32:00,69.4,60.4,29.78,ENE,61,0.0,0.0,73,0.00,,---,0.00,VWS V14.01,2013-07-01 07:32:00,
2013-07-01 00:37:00,69.2,60.2,29.79,ENE,61,0.0,0.0,73,0.00,,---,0.00,VWS V14.01,2013-07-01 07:37:00,
2013-07-01 00:42:00,68.9,59.9,29.79,ENE,61,0.0,0.0,73,0.00,,---,0.00,VWS V14.01,2013-07-01 07:42:00,
2013-07-01 00:47:00,68.6,59.6,29.79,ENE,62,0.0,0.0,73,0.00,,---,0.00,VWS V14.01,2013-07-01 07:47:00,
2013-07-01 00:52:00,68.4,59.4,29.79,ENE,62,0.0,0.0,73,0.00,,---,0.00,VWS V14.01,2013-07-01 07:52:00,
2013-07-01 00:57:00,68.2,59.6,29.79,ENE,61,0.0,0.0,74,0.00,,---,0.00,VWS V14.01,2013-07-01 07:57:00,
2013-07-01 01:00:00,68.0,59.4,29.78,ENE,62,0.0,0.0,74,0.00,,---,0.00,VWS V14.01,2013-07-01 08:00:00,
2013-07-01 01:02:00,68.0,59.4,29.78,ENE,63,0.0,0.0,74,0.00,,---,0.00,VWS V14.01,2013-07-01 08:02:00,
2013-07-01 01:07:00,67.9,59.3,29.78,ENE,61,0.0,0.0,74,0.00,,---,0.00,VWS V14.01,2013-07-01 08:07:00,
2013-07-01 01:12:00,67.7,59.1,29.78,ENE,61,0.0,0.0,74,0.00,,---,0.00,VWS V14.01,2013-07-01 08:12:00,
2013-07-01 01:15:00,67.7,59.1,29.78,ENE,63,0.0,0.0,74,0.00,,---,0.00,VWS V14.01,2013-07-01 08:15:00,
2013-07-01 01:17:00,67.6,59.0,29.78,ENE,61,0.0,0.0,74,0.00,,---,0.00,VWS V14.01,2013-07-01 08:17:00,
2013-07-01 01:22:00,67.5,58.9,29.78,ENE,61,0.0,0.0,74,0.00,,---,0.00,VWS V14.01,2013-07-01 08:22:00,
2013-07-01 01:27:00,67.5,58.9,29.79,ENE,62,0.0,0.0,74,0.00,,---,0.00,VWS V14.01,2013-07-01 08:27:00,
2013-07-01 01:30:00,67.4,59.2,29.79,ENE,63,0.0,0.0,75,0.00,,---,0.00,VWS V14.01,2013-07-01 08:30:00,
2013-07-01 01:32:00,67.4,59.2,29.79,ENE,61,0.0,0.0,75,0.00,,---,0.00,VWS V14.01,2013-07-01 08:32:00,
2013-07-01 01:37:00,67.5,59.7,29.78,ENE,62,0.0,0.0,76,0.00,,---,0.00,VWS V14.01,2013-07-01 08:37:00,
2013-07-01 01:42:00,67.5,59.7,29.78,ENE,62,0.0,0.0,76,0.00,,---,0.00,VWS V14.01,2013-07-01 08:42:00,
2013-07-01 01:45:00,67.4,59.6,29.78,ENE,62,0.0,0.0,76,0.00,,---,0.00,VWS V14.01,2013-07-01 08:45:00,
2013-07-01 01:47:00,67.4,59.2,29.78,ENE,61,0.0,0.0,75,0.00,,---,0.00,VWS V14.01,2013-07-01 08:47:00,
2013-07-01 01:52:00,67.2,59.0,29.78,ENE,61,0.0,0.0,75,0.00,,---,0.00,VWS V14.01,2013-07-01 08:52:00,
2013-07-01 01:57:00,67.1,58.9,29.78,ENE,63,2.0,3.0,75,0.00,,---,0.00,VWS V14.01,2013-07-01 08:57:00,
2013-07-01 02:00:00,67.1,58.9,29.78,ENE,61,3.0,4.0,75,0.00,,---,0.00,VWS V14.01,2013-07-01 09:00:00,
2013-07-01 02:02:00,67.0,58.8,29.77,ENE,61,3.0,3.0,75,0.00,,---,0.00,VWS V14.01,2013-07-01 09:02:00,
2013-07-01 02:07:00,67.0,58.8,29.77,ENE,62,0.0,3.0,75,0.00,,---,0.00,VWS V14.01,2013-07-01 09:07:00,
2013-07-01 02:12:00,67.2,60.1,29.78,SW,232,0.0,4.0,78,0.00,,---,0.00,VWS V14.01,2013-07-01 09:12:00,
2013-07-01 02:15:00,67.4,60.3,29.78,SSW,202,0.0,4.0,78,0.00,,---,0.00,VWS V14.01,2013-07-01 09:15:00,
2013-07-01 02:17:00,67.4,60.3,29.78,SSW,202,1.0,1.0,78,0.00,,---,0.00,VWS V14.01,2013-07-01 09:17:00,
2013-07-01 02:22:00,67.5,60.4,29.78,South,183,3.0,5.0,78,0.00,,---,0.00,VWS V14.01,2013-07-01 09:22:00,
2013-07-01 02:27:00,67.6,59.8,29.78,South,183,0.0,5.0,76,0.00,,---,0.00,VWS V14.01,2013-07-01 09:27:00,
2013-07-01 02:30:00,67.6,59.0,29.78,SSE,156,3.0,5.0,74,0.00,,---,0.00,VWS V14.01,2013-07-01 09:30:00,
2013-07-01 02:32:00,67.7,59.1,29.78,SSE,151,0.0,3.0,74,0.00,,---,0.00,VWS V14.01,2013-07-01 09:32:00,
2013-07-01 02:37:00,67.9,59.3,29.78,ESE,113,1.0,3.0,74,0.00,,---,0.00,VWS V14.01,2013-07-01 09:37:00,
2013-07-01 02:42:00,67.9,58.9,29.78,ESE,113,0.0,3.0,73,0.00,,---,0.00,VWS V14.01,2013-07-01 09:42:00,
2013-07-01 02:45:00,68.0,59.0,29.78,ESE,113,0.0,3.0,73,0.00,,---,0.00,VWS V14.01,2013-07-01 09:45:00,
2013-07-01 02:47:00,67.9,58.9,29.78,ESE,113,0.0,0.0,73,0.00,,---,0.00,VWS V14.01,2013-07-01 09:47:00,
2013-07-01 02:52:00,67.9,58.9,29.79,ESE,113,0.0,0.0,73,0.00,,---,0.00,VWS V14.01,2013-07-01 09:52:00,
2013-07-01 02:57:00,67.9,58.9,29.78,ESE,111,0.0,0.0,73,0.00,,---,0.00,VWS V14.01,2013-07-01 09:57:00,
2013-07-01 03:00:00,67.9,58.9,29.78,ESE,110,0.0,0.0,73,0.00,,---,0.00,VWS V14.01,2013-07-01 10:00:00,
2013-07-01 03:02:00,67.9,58.9,29.77,ESE,113,0.0,0.0,73,0.00,,---,0.00,VWS V14.01,2013-07-01 10:02:00,
2013-07-01 03:07:00,67.9,58.9,29.78,ESE,112,0.0,2.0,73,0.00,,---,0.00,VWS V14.01,2013-07-01 10:07:00,
2013-07-01 03:12:00,67.8,58.8,29.77,ESE,113,0.0,2.0,73,0.00,,---,0.00,VWS V14.01,2013-07-01 10:12:00,
2013-07-01 03:15:00,67.8,58.8,29.77,ESE,113,0.0,2.0,73,0.00,,---,0.00,VWS V14.01,2013-07-01 10:15:00,
2013-07-01 03:17:00,67.7,58.7,29.77,ESE,112,0.0,0.0,73,0.00,,---,0.00,VWS V14.01,2013-07-01 10:17:00,
2013-07-01 03:22:00,67.6,58.7,29.77,ESE,113,1.0,2.0,73,0.00,,---,0.00,VWS V14.01,2013-07-01 10:22:00,
2013-07-01 03:27:00,67.5,58.5,29.77,ESE,113,1.0,2.0,73,0.00,,---,0.00,VWS V14.01,2013-07-01 10:27:00,
2013-07-01 03:30:00,67.4,58.1,29.77,ESE,113,2.0,3.0,72,0.00,,---,0.00,VWS V14.01,2013-07-01 10:30:00,
2013-07-01 03:32:00,67.4,58.5,29.77,ENE,69,2.0,4.0,73,0.00,,---,0.00,VWS V14.01,2013-07-01 10:32:00,
2013-07-01 03:37:00,67.3,58.4,29.77,ENE,69,0.0,4.0,73,0.00,,---,0.00,VWS V14.01,2013-07-01 10:37:00,
2013-07-01 03:42:00,67.2,58.6,29.77,ENE,67,3.0,4.0,74,0.00,,---,0.00,VWS V14.01,2013-07-01 10:42:00,
2013-07-01 03:45:00,67.2,58.6,29.77,ENE,67,3.0,4.0,74,0.00,,---,0.00,VWS V14.01,2013-07-01 10:45:00,
2013-07-01 03:47:00,67.2,58.6,29.77,ENE,67,2.0,4.0,74,0.00,,---,0.00,VWS V14.01,2013-07-01 10:47:00,
2013-07-01 03:52:00,67.2,58.6,29.78,ENE,66,0.0,4.0,74,0.00,,---,0.00,VWS V14.01,2013-07-01 10:52:00,
2013-07-01 03:57:00,67.1,58.2,29.78,ENE,65,2.0,5.0,73,0.00,,---,0.00,VWS V14.01,2013-07-01 10:57:00,
2013-07-01 04:00:00,67.1,58.2,29.77,ENE,64,1.0,5.0,73,0.00,,---,0.00,VWS V14.01,2013-07-01 11:00:00,
2013-07-01 04:02:00,67.1,58.2,29.77,ENE,65,3.0,3.0,73,0.00,,---,0.00,VWS V14.01,2013-07-01 11:02:00,
2013-07-01 04:07:00,67.0,57.7,29.78,ENE,64,0.0,3.0,72,0.00,,---,0.00,VWS V14.01,2013-07-01 11:07:00,
2013-07-01 04:12:00,67.0,57.7,29.78,ENE,64,1.0,3.0,72,0.00,,---,0.00,VWS V14.01,2013-07-01 11:12:00,
2013-07-01 04:15:00,67.0,57.7,29.79,ENE,64,0.0,3.0,72,0.00,,---,0.00,VWS V14.01,2013-07-01 11:15:00,
2013-07-01 04:17:00,67.0,57.7,29.79,ENE,64,0.0,0.0,72,0.00,,---,0.00,VWS V14.01,2013-07-01 11:17:00,
2013-07-01 04:22:00,66.9,57.2,29.79,ENE,64,2.0,3.0,71,0.00,,---,0.00,VWS V14.01,2013-07-01 11:22:00,
2013-07-01 04:27:00,67.0,57.3,29.79,ENE,60,3.0,5.0,71,0.00,,---,0.00,VWS V14.01,2013-07-01 11:27:00,
2013-07-01 04:30:00,67.0,56.9,29.79,ENE,60,0.0,5.0,70,0.00,,---,0.00,VWS V14.01,2013-07-01 11:30:00,
2013-07-01 04:32:00,67.0,56.9,29.79,ENE,59,0.0,0.0,70,0.00,,---,0.00,VWS V14.01,2013-07-01 11:32:00,
2013-07-01 04:37:00,67.0,56.9,29.79,ENE,59,0.0,4.0,70,0.00,,---,0.00,VWS V14.01,2013-07-01 11:37:00,
2013-07-01 04:42:00,67.0,56.9,29.79,ENE,59,0.0,4.0,70,0.00,,---,0.00,VWS V14.01,2013-07-01 11:42:00,
2013-07-01 04:45:00,66.9,56.8,29.79,ENE,59,0.0,4.0,70,0.00,,---,0.00,VWS V14.01,2013-07-01 11:45:00,
2013-07-01 04:47:00,66.9,56.8,29.79,ENE,59,0.0,0.0,70,0.00,,---,0.00,VWS V14.01,2013-07-01 11:47:00,
2013-07-01 04:52:00,66.9,56.8,29.79,ENE,60,1.0,3.0,70,0.00,,---,0.00,VWS V14.01,2013-07-01 11:52:00,
2013-07-01 04:57:00,66.9,56.4,29.79,ENE,59,2.0,4.0,69,0.00,,---,0.00,VWS V14.01,2013-07-01 11:57:00,
2013-07-01 05:00:00,67.0,56.5,29.79,ENE,61,0.0,4.0,69,0.00,,---,0.00,VWS V14.01,2013-07-01 12:00:00,
2013-07-01 05:02:00,67.0,56.5,29.80,ENE,60,0.0,2.0,69,0.00,,---,0.00,VWS V14.01,2013-07-01 12:02:00,
2013-07-01 05:07:00,67.1,56.6,29.80,ENE,59,0.0,4.0,69,0.00,,---,0.00,VWS V14.01,2013-07-01 12:07:00,
2013-07-01 05:12:00,67.1,56.2,29.79,ENE,60,0.0,4.0,68,0.00,,---,0.00,VWS V14.01,2013-07-01 12:12:00,
2013-07-01 05:15:00,67.2,56.3,29.79,ENE,61,2.0,4.0,68,0.00,,---,0.00,VWS V14.01,2013-07-01 12:15:00,
2013-07-01 05:17:00,67.2,56.3,29.79,ENE,60,0.0,3.0,68,0.00,,---,0.00,VWS V14.01,2013-07-01 12:17:00,
2013-07-01 05:22:00,67.3,56.4,29.79,ENE,59,0.0,3.0,68,0.00,,---,0.00,VWS V14.01,2013-07-01 12:22:00,
2013-07-01 05:27:00,67.3,56.0,29.79,ENE,60,0.0,3.0,67,0.00,,---,0.00,VWS V14.01,2013-07-01 12:27:00,
2013-07-01 05:30:00,67.4,55.7,29.80,ENE,60,0.0,3.0,66,0.00,,---,0.00,VWS V14.01,2013-07-01 12:30:00,
2013-07-01 05:32:00,67.4,55.7,29.80,ENE,60,0.0,0.0,66,0.00,,---,0.00,VWS V14.01,2013-07-01 12:32:00,
2013-07-01 05:37:00,67.4,55.7,29.79,ENE,60,0.0,0.0,66,0.00,,---,0.00,VWS V14.01,2013-07-01 12:37:00,
2013-07-01 05:42:00,67.5,55.8,29.80,ENE,61,0.0,0.0,66,0.00,,---,0.00,VWS V14.01,2013-07-01 12:42:00,
2013-07-01 05:45:00,67.6,55.8,29.80,ENE,61,0.0,0.0,66,0.00,,---,0.00,VWS V14.01,2013-07-01 12:45:00,
2013-07-01 05:47:00,67.7,56.0,29.80,ENE,60,0.0,0.0,66,0.00,,---,0.00,VWS V14.01,2013-07-01 12:47:00,
2013-07-01 05:52:00,68.0,56.2,29.80,ENE,60,0.0,0.0,66,0.00,,---,0.00,VWS V14.01,2013-07-01 12:52:00,
2013-07-01 05:57:00,68.2,56.4,29.80,ENE,61,2.0,2.0,66,0.00,,---,0.00,VWS V14.01,2013-07-01 12:57:00,
2013-07-01 06:00:00,68.3,56.5,29.80,ENE,60,0.0,3.0,66,0.00,,---,0.00,VWS V14.01,2013-07-01 13:00:00,
2013-07-01 06:02:00,68.3,56.9,29.81,ENE,60,1.0,3.0,67,0.00,,---,0.00,VWS V14.01,2013-07-01 13:02:00,
2013-07-01 06:07:00,68.4,57.0,29.81,ENE,60,3.0,3.0,67,0.00,,---,0.00,VWS V14.01,2013-07-01 13:07:00,
2013-07-01 06:12:00,68.5,56.7,29.80,ENE,60,0.0,3.0,66,0.00,,---,0.00,VWS V14.01,2013-07-01 13:12:00,
2013-07-01 06:15:00,68.6,56.8,29.80,ENE,59,0.0,3.0,66,0.00,,---,0.00,VWS V14.01,2013-07-01 13:15:00,
2013-07-01 06:17:00,68.6,56.4,29.80,ENE,60,0.0,0.0,65,0.00,,---,0.00,VWS V14.01,2013-07-01 13:17:00,
2013-07-01 06:22:00,68.6,56.0,29.80,ENE,60,0.0,2.0,64,0.00,,---,0.00,VWS V14.01,2013-07-01 13:22:00,
2013-07-01 06:27:00,68.8,55.7,29.80,ENE,60,0.0,2.0,63,0.00,,---,0.00,VWS V14.01,2013-07-01 13:27:00,
2013-07-01 06:30:00,68.9,55.8,29.80,ENE,60,1.0,3.0,63,0.00,,---,0.00,VWS V14.01,2013-07-01 13:30:00,
2013-07-01 06:32:00,68.9,55.8,29.80,ENE,60,2.0,3.0,63,0.00,,---,0.00,VWS V14.01,2013-07-01 13:32:00,
2013-07-01 06:37:00,69.0,55.9,29.80,ENE,60,0.0,3.0,63,0.00,,---,0.00,VWS V14.01,2013-07-01 13:37:00,
2013-07-01 06:42:00,69.2,56.5,29.80,ENE,60,0.0,3.0,64,0.00,,---,0.00,VWS V14.01,2013-07-01 13:42:00,
2013-07-01 06:45:00,69.2,56.1,29.80,ENE,61,0.0,3.0,63,0.00,,---,0.00,VWS V14.01,2013-07-01 13:45:00,
2013-07-01 06:47:00,69.3,56.2,29.80,ENE,60,0.0,0.0,63,0.00,,---,0.00,VWS V14.01,2013-07-01 13:47:00,
2013-07-01 06:52:00,69.4,55.8,29.80,ENE,61,0.0,1.0,62,0.00,,---,0.00,VWS V14.01,2013-07-01 13:52:00,
2013-07-01 06:57:00,69.7,56.1,29.80,ENE,60,0.0,1.0,62,0.00,,---,0.00,VWS V14.01,2013-07-01 13:57:00,
2013-07-01 07:00:00,69.9,56.7,29.80,ENE,61,0.0,1.0,63,0.00,,---,0.00,VWS V14.01,2013-07-01 14:00:00,
2013-07-01 07:02:00,70.0,56.8,29.80,ENE,61,0.0,0.0,63,0.00,,---,0.00,VWS V14.01,2013-07-01 14:02:00,
2013-07-01 07:07:00,70.3,57.1,29.80,ENE,60,0.0,0.0,63,0.00,,---,0.00,VWS V14.01,2013-07-01 14:07:00,
2013-07-01 07:12:00,70.5,57.3,29.81,ENE,60,0.0,0.0,63,0.00,,---,0.00,VWS V14.01,2013-07-01 14:12:00,
2013-07-01 07:17:00,70.7,57.9,29.81,ENE,61,0.0,0.0,64,0.00,,---,0.00,VWS V14.01,2013-07-01 14:17:00,
2013-07-01 07:22:00,71.0,58.2,29.80,ENE,60,0.0,0.0,64,0.00,,---,0.00,VWS V14.01,2013-07-01 14:22:00,
2013-07-01 07:27:00,71.3,58.5,29.81,ENE,61,0.0,0.0,64,0.00,,---,0.00,VWS V14.01,2013-07-01 14:27:00,
2013-07-01 07:30:00,71.3,58.5,29.81,ENE,61,0.0,0.0,64,0.00,,---,0.00,VWS V14.01,2013-07-01 14:30:00,
2013-07-01 07:32:00,71.4,57.7,29.81,ENE,61,0.0,0.0,62,0.00,,---,0.00,VWS V14.01,2013-07-01 14:32:00,
2013-07-01 07:37:00,71.8,57.6,29.81,ENE,60,0.0,2.0,61,0.00,,---,0.00,VWS V14.01,2013-07-01 14:37:00,
2013-07-01 07:42:00,72.2,59.4,29.82,ENE,61,1.0,2.0,64,0.00,,---,0.00,VWS V14.01,2013-07-01 14:42:00,
2013-07-01 07:45:00,72.5,58.3,29.82,ENE,61,2.0,2.0,61,0.00,,---,0.00,VWS V14.01,2013-07-01 14:45:00,
2013-07-01 07:47:00,72.6,58.4,29.82,ENE,61,2.0,4.0,61,0.00,,---,0.00,VWS V14.01,2013-07-01 14:47:00,
2013-07-01 07:52:00,72.8,57.2,29.82,ENE,63,0.0,4.0,58,0.00,,---,0.00,VWS V14.01,2013-07-01 14:52:00,
2013-07-01 07:57:00,73.0,57.8,29.82,ENE,63,0.0,4.0,59,0.00,,---,0.00,VWS V14.01,2013-07-01 14:57:00,
2013-07-01 08:00:00,73.1,57.9,29.82,ENE,62,0.0,4.0,59,0.00,,---,0.00,VWS V14.01,2013-07-01 15:00:00,
2013-07-01 08:02:00,73.2,58.0,29.82,ENE,61,0.0,0.0,59,0.00,,---,0.00,VWS V14.01,2013-07-01 15:02:00,
2013-07-01 08:07:00,73.4,57.7,29.83,ENE,62,0.0,1.0,58,0.00,,---,0.00,VWS V14.01,2013-07-01 15:07:00,
2013-07-01 08:12:00,73.7,59.0,29.82,ENE,63,0.0,1.0,60,0.00,,---,0.00,VWS V14.01,2013-07-01 15:12:00,
2013-07-01 08:17:00,74.0,60.6,29.82,ENE,61,0.0,0.0,63,0.00,,---,0.00,VWS V14.01,2013-07-01 15:17:00,
2013-07-01 08:22:00,74.2,60.4,29.82,ENE,63,0.0,0.0,62,0.00,,---,0.00,VWS V14.01,2013-07-01 15:22:00,
2013-07-01 08:27:00,74.4,61.0,29.82,ENE,61,0.0,0.0,63,0.00,,---,0.00,VWS V14.01,2013-07-01 15:27:00,
2013-07-01 08:30:00,74.5,61.1,29.82,ENE,63,0.0,0.0,63,0.00,,---,0.00,VWS V14.01,2013-07-01 15:30:00,
2013-07-01 08:32:00,74.5,60.2,29.82,ENE,62,0.0,0.0,61,0.00,,---,0.00,VWS V14.01,2013-07-01 15:32:00,
2013-07-01 08:37:00,74.4,59.6,29.82,ENE,61,0.0,0.0,60,0.00,,---,0.00,VWS V14.01,2013-07-01 15:37:00,
2013-07-01 08:42:00,74.5,59.7,29.82,ENE,63,0.0,0.0,60,0.00,,---,0.00,VWS V14.01,2013-07-01 15:42:00,
2013-07-01 08:47:00,74.6,60.3,29.82,ENE,63,0.0,0.0,61,0.00,,---,0.00,VWS V14.01,2013-07-01 15:47:00,
2013-07-01 08:52:00,74.9,61.9,29.82,ENE,62,0.0,1.0,64,0.00,,---,0.00,VWS V14.01,2013-07-01 15:52:00,
2013-07-01 08:57:00,75.0,62.5,29.82,ENE,63,1.0,3.0,65,0.00,,---,0.00,VWS V14.01,2013-07-01 15:57:00,
2013-07-01 09:00:00,75.0,62.5,29.82,ENE,63,0.0,3.0,65,0.00,,---,0.00,VWS V14.01,2013-07-01 16:00:00,
2013-07-01 09:02:00,75.0,62.5,29.82,ENE,62,0.0,2.0,65,0.00,,---,0.00,VWS V14.01,2013-07-01 16:02:00,
2013-07-01 09:07:00,74.9,61.9,29.83,ENE,63,1.0,2.0,64,0.00,,---,0.00,VWS V14.01,2013-07-01 16:07:00,
2013-07-01 09:12:00,74.9,62.8,29.83,SW,223,0.0,4.0,66,0.00,,---,0.00,VWS V14.01,2013-07-01 16:12:00,
2013-07-01 09:15:00,74.8,62.7,29.83,SW,223,2.0,4.0,66,0.00,,---,0.00,VWS V14.01,2013-07-01 16:15:00,
2013-07-01 09:17:00,74.6,62.5,29.83,SW,234,0.0,2.0,66,0.00,,---,0.00,VWS V14.01,2013-07-01 16:17:00,
2013-07-01 09:22:00,74.4,61.9,29.83,SW,234,3.0,5.0,65,0.00,,---,0.00,VWS V14.01,2013-07-01 16:22:00,
2013-07-01 09:27:00,74.3,62.6,29.83,WSW,239,0.0,5.0,67,0.00,,---,0.00,VWS V14.01,2013-07-01 16:27:00,
2013-07-01 09:30:00,74.2,62.5,29.83,WSW,252,3.0,5.0,67,0.00,,---,0.00,VWS V14.01,2013-07-01 16:30:00,
2013-07-01 09:32:00,74.2,62.1,29.83,WSW,252,2.0,3.0,66,0.00,,---,0.00,VWS V14.01,2013-07-01 16:32:00,
2013-07-01 09:37:00,74.2,63.0,29.83,WSW,252,0.0,3.0,68,0.00,,---,0.00,VWS V14.01,2013-07-01 16:37:00,
2013-07-01 09:42:00,74.5,63.3,29.83,SW,223,2.0,5.0,68,0.00,,---,0.00,VWS V14.01,2013-07-01 16:42:00,
2013-07-01 09:45:00,74.6,63.3,29.83,WSW,239,3.0,5.0,68,0.00,,---,0.00,VWS V14.01,2013-07-01 16:45:00,
2013-07-01 09:47:00,74.6,63.3,29.83,SW,229,3.0,6.0,68,0.00,,---,0.00,VWS V14.01,2013-07-01 16:47:00,
2013-07-01 09:52:00,74.9,64.1,29.83,SW,226,2.0,6.0,69,0.00,,---,0.00,VWS V14.01,2013-07-01 16:52:00,
2013-07-01 09:57:00,75.7,64.8,29.84,SW,232,2.0,6.0,69,0.00,,---,0.00,VWS V14.01,2013-07-01 16:57:00,
2013-07-01 10:02:00,76.4,65.5,29.84,SSW,212,4.0,7.0,69,0.00,,---,0.00,VWS V14.01,2013-07-01 17:02:00,
2013-07-01 10:07:00,76.6,65.3,29.84,SW,222,3.0,7.0,68,0.00,,---,0.00,VWS V14.01,2013-07-01 17:07:00,
2013-07-01 10:13:00,76.5,65.6,29.84,WSW,256,0.0,7.0,69,0.00,,---,0.00,VWS V14.01,2013-07-01 17:13:00,
2013-07-01 10:18:00,76.6,64.8,29.84,South,180,3.0,4.0,67,0.00,,---,0.00,VWS V14.01,2013-07-01 17:18:00,
2013-07-01 10:23:00,76.7,64.9,29.84,South,180,0.0,4.0,67,0.00,,---,0.00,VWS V14.01,2013-07-01 17:23:00,
2013-07-01 10:28:00,77.6,64.9,29.84,South,180,0.0,4.0,65,0.00,,---,0.00,VWS V14.01,2013-07-01 17:28:00,
2013-07-01 10:33:00,78.7,65.5,29.84,South,182,0.0,2.0,64,0.00,,---,0.00,VWS V14.01,2013-07-01 17:33:00,
2013-07-01 10:38:00,79.6,65.9,29.84,South,182,2.0,2.0,63,0.00,,---,0.00,VWS V14.01,2013-07-01 17:38:00,
2013-07-01 10:43:00,80.3,66.1,29.84,SW,215,2.0,3.0,62,0.00,,---,0.00,VWS V14.01,2013-07-01 17:43:00,
2013-07-01 10:45:00,80.5,66.3,29.84,SW,234,0.0,3.0,62,0.00,,---,0.00,VWS V14.01,2013-07-01 17:45:00,
2013-07-01 10:48:00,80.7,66.5,29.84,WSW,245,0.0,4.0,62,0.00,,---,0.00,VWS V14.01,2013-07-01 17:48:00,
2013-07-01 10:53:00,81.1,66.4,29.84,West,259,0.0,4.0,61,0.00,,---,0.00,VWS V14.01,2013-07-01 17:53:00,
2013-07-01 10:58:00,81.3,66.1,29.84,SSW,206,0.0,4.0,60,0.00,,---,0.00,VWS V14.01,2013-07-01 17:58:00,
2013-07-01 11:00:00,81.5,66.3,29.84,SSW,206,0.0,4.0,60,0.00,,---,0.00,VWS V14.01,2013-07-01 18:00:00,
2013-07-01 11:03:00,81.8,66.1,29.83,SW,221,0.0,4.0,59,0.00,,---,0.00,VWS V14.01,2013-07-01 18:03:00,
2013-07-01 11:08:00,82.2,66.5,29.84,SW,218,0.0,5.0,59,0.00,,---,0.00,VWS V14.01,2013-07-01 18:08:00,
2013-07-01 11:13:00,82.7,67.9,29.84,WSW,238,4.0,6.0,61,0.00,,---,0.00,VWS V14.01,2013-07-01 18:13:00,
2013-07-01 11:15:00,82.9,66.6,29.84,WSW,249,0.0,6.0,58,0.00,,---,0.00,VWS V14.01,2013-07-01 18:15:00,
2013-07-01 11:18:00,83.2,67.4,29.84,West,281,3.0,6.0,59,0.00,,---,0.00,VWS V14.01,2013-07-01 18:18:00,
2013-07-01 11:23:00,83.6,67.8,29.84,WSW,238,5.0,6.0,59,0.00,,---,0.00,VWS V14.01,2013-07-01 18:23:00,
2013-07-01 11:28:00,84.1,67.2,29.84,WSW,238,2.0,6.0,57,0.00,,---,0.00,VWS V14.01,2013-07-01 18:28:00,
2013-07-01 11:30:00,84.3,67.4,29.84,WSW,238,1.0,6.0,57,0.00,,---,0.00,VWS V14.01,2013-07-01 18:30:00,
2013-07-01 11:33:00,84.7,68.8,29.84,SW,236,3.0,4.0,59,0.00,,---,0.00,VWS V14.01,2013-07-01 18:33:00,
2013-07-01 11:38:00,85.1,67.7,29.84,SSW,207,3.0,4.0,56,0.00,,---,0.00,VWS V14.01,2013-07-01 18:38:00,
2013-07-01 11:43:00,85.1,67.1,29.84,SW,216,3.0,6.0,55,0.00,,---,0.00,VWS V14.01,2013-07-01 18:43:00,
2013-07-01 11:45:00,84.9,66.9,29.84,SW,236,5.0,9.0,55,0.00,,---,0.00,VWS V14.01,2013-07-01 18:45:00,
2013-07-01 11:48:00,84.6,67.2,29.85,SW,230,4.0,6.0,56,0.00,,---,0.00,VWS V14.01,2013-07-01 18:48:00,
2013-07-01 11:53:00,84.1,67.7,29.85,SSW,196,5.0,7.0,58,0.00,,---,0.00,VWS V14.01,2013-07-01 18:53:00,
2013-07-01 11:58:00,83.7,66.9,29.85,SW,229,3.0,7.0,57,0.00,,---,0.00,VWS V14.01,2013-07-01 18:58:00,
2013-07-01 12:00:00,83.8,68.0,29.85,SSW,198,1.0,7.0,59,0.00,,---,0.00,VWS V14.01,2013-07-01 19:00:00,
2013-07-01 12:03:00,83.9,66.5,29.86,South,189,6.0,6.0,56,0.00,,---,0.00,VWS V14.01,2013-07-01 19:03:00,
2013-07-01 12:08:00,84.2,67.8,29.86,West,259,4.0,9.0,58,0.00,,---,0.00,VWS V14.01,2013-07-01 19:08:00,
2013-07-01 12:13:00,84.7,67.8,29.86,SW,236,4.0,9.0,57,0.00,,---,0.00,VWS V14.01,2013-07-01 19:13:00,
2013-07-01 12:15:00,85.0,68.1,29.86,SW,224,2.0,9.0,57,0.00,,---,0.00,VWS V14.01,2013-07-01 19:15:00,
2013-07-01 12:18:00,85.4,68.4,29.86,SSW,196,3.0,4.0,57,0.00,,---,0.00,VWS V14.01,2013-07-01 19:18:00,
2013-07-01 12:23:00,86.1,65.9,29.86,South,184,3.0,5.0,51,0.00,,---,0.00,VWS V14.01,2013-07-01 19:23:00,
2013-07-01 12:28:00,86.7,65.3,29.86,SW,223,0.0,9.0,49,0.00,,---,0.00,VWS V14.01,2013-07-01 19:28:00,
2013-07-01 12:30:00,87.1,65.1,29.86,SSE,165,6.0,9.0,48,0.00,,---,0.00,VWS V14.01,2013-07-01 19:30:00,
2013-07-01 12:33:00,87.6,64.3,29.86,SW,217,0.0,6.0,46,0.00,,---,0.00,VWS V14.01,2013-07-01 19:33:00,
2013-07-01 12:38:00,88.6,63.9,29.85,SW,234,2.0,9.0,44,0.00,,---,0.00,VWS V14.01,2013-07-01 19:38:00,
2013-07-01 12:43:00,89.2,64.5,29.85,SSW,193,0.0,9.0,44,0.00,,---,0.00,VWS V14.01,2013-07-01 19:43:00,
2013-07-01 12:45:00,89.5,64.1,29.85,SSW,198,0.0,9.0,43,0.00,,---,0.00,VWS V14.01,2013-07-01 19:45:00,
2013-07-01 12:48:00,89.8,65.6,29.84,SW,218,3.0,6.0,45,0.00,,---,0.00,VWS V14.01,2013-07-01 19:48:00,
2013-07-01 12:53:00,90.4,64.2,29.84,SSW,200,2.0,6.0,42,0.00,,---,0.00,VWS V14.01,2013-07-01 19:53:00,
2013-07-01 12:58:00,90.8,63.9,29.84,SSE,150,2.0,7.0,41,0.00,,---,0.00,VWS V14.01,2013-07-01 19:58:00,
2013-07-01 13:00:00,91.0,63.3,29.84,SE,142,0.0,7.0,40,0.00,,---,0.00,VWS V14.01,2013-07-01 20:00:00,
2013-07-01 13:03:00,91.4,63.7,29.84,SE,144,0.0,0.0,40,0.00,,---,0.00,VWS V14.01,2013-07-01 20:03:00,
2013-07-01 13:08:00,92.3,64.5,29.84,North,360,0.0,6.0,40,0.00,,---,0.00,VWS V14.01,2013-07-01 20:08:00,
2013-07-01 13:13:00,92.7,63.4,29.84,SSE,164,0.0,6.0,38,0.00,,---,0.00,VWS V14.01,2013-07-01 20:13:00,
2013-07-01 13:15:00,92.8,63.5,29.83,South,173,7.0,10.0,38,0.00,,---,0.00,VWS V14.01,2013-07-01 20:15:00,
2013-07-01 13:18:00,92.7,63.4,29.84,South,190,0.0,7.0,38,0.00,,---,0.00,VWS V14.01,2013-07-01 20:18:00,
2013-07-01 13:23:00,92.2,63.0,29.84,SW,218,1.0,7.0,38,0.00,,---,0.00,VWS V14.01,2013-07-01 20:23:00,
2013-07-01 13:28:00,91.5,62.3,29.83,SSW,197,1.0,13.0,38,0.00,,---,0.00,VWS V14.01,2013-07-01 20:28:00,
2013-07-01 13:30:00,91.3,63.6,29.83,SSW,201,0.0,13.0,40,0.00,,---,0.00,VWS V14.01,2013-07-01 20:30:00,
2013-07-01 13:33:00,91.4,63.0,29.83,SSW,213,1.0,5.0,39,0.00,,---,0.00,VWS V14.01,2013-07-01 20:33:00,
2013-07-01 13:38:00,91.8,64.1,29.83,SW,222,2.0,7.0,40,0.00,,---,0.00,VWS V14.01,2013-07-01 20:38:00,
2013-07-01 13:43:00,92.4,64.6,29.83,SW,233,7.0,9.0,40,0.00,,---,0.00,VWS V14.01,2013-07-01 20:43:00,
2013-07-01 13:45:00,92.5,63.2,29.82,WSW,240,5.0,9.0,38,0.00,,---,0.00,VWS V14.01,2013-07-01 20:45:00,
2013-07-01 13:48:00,92.4,63.1,29.83,SSW,205,3.0,5.0,38,0.00,,---,0.00,VWS V14.01,2013-07-01 20:48:00,
2013-07-01 13:53:00,92.1,64.3,29.82,West,264,2.0,5.0,40,0.00,,---,0.00,VWS V14.01,2013-07-01 20:53:00,
2013-07-01 13:58:00,91.8,64.1,29.82,WSW,238,1.0,7.0,40,0.00,,---,0.00,VWS V14.01,2013-07-01 20:58:00,
2013-07-01 14:00:00,91.7,63.2,29.82,WSW,244,0.0,7.0,39,0.00,,---,0.00,VWS V14.01,2013-07-01 21:00:00,
2013-07-01 14:03:00,91.5,64.5,29.81,West,265,3.0,5.0,41,0.00,,---,0.00,VWS V14.01,2013-07-01 21:03:00,
2013-07-01 14:08:00,91.2,63.5,29.82,WSW,246,4.0,5.0,40,0.00,,---,0.00,VWS V14.01,2013-07-01 21:08:00,
2013-07-01 14:13:00,91.1,64.1,29.82,SW,232,3.0,5.0,41,0.00,,---,0.00,VWS V14.01,2013-07-01 21:13:00,
2013-07-01 14:15:00,91.1,64.8,29.82,SW,233,1.0,5.0,42,0.00,,---,0.00,VWS V14.01,2013-07-01 21:15:00,
2013-07-01 14:18:00,91.3,64.3,29.81,WSW,257,1.0,5.0,41,0.00,,---,0.00,VWS V14.01,2013-07-01 21:18:00,
2013-07-01 14:24:00,92.0,64.9,29.81,SW,233,6.0,7.0,41,0.00,,---,0.00,VWS V14.01,2013-07-01 21:24:00,
2013-07-01 14:29:00,92.5,64.0,29.81,West,267,3.0,7.0,39,0.00,,---,0.00,VWS V14.01,2013-07-01 21:29:00,
2013-07-01 14:30:00,92.7,64.1,29.81,SW,234,6.0,7.0,39,0.00,,---,0.00,VWS V14.01,2013-07-01 21:30:00,
2013-07-01 14:34:00,92.9,62.0,29.81,WSW,241,3.0,8.0,36,0.00,,---,0.00,VWS V14.01,2013-07-01 21:34:00,
2013-07-01 14:39:00,92.5,61.7,29.81,WNW,282,4.0,8.0,36,0.00,,---,0.00,VWS V14.01,2013-07-01 21:39:00,
2013-07-01 14:44:00,92.5,62.5,29.81,NW,304,3.0,8.0,37,0.00,,---,0.00,VWS V14.01,2013-07-01 21:44:00,
2013-07-01 14:45:00,92.6,64.1,29.81,SW,233,2.0,8.0,39,0.00,,---,0.00,VWS V14.01,2013-07-01 21:45:00,
2013-07-01 14:49:00,92.7,61.9,29.81,West,267,5.0,9.0,36,0.00,,---,0.00,VWS V14.01,2013-07-01 21:49:00,
2013-07-01 14:54:00,92.7,61.9,29.81,WNW,288,1.0,9.0,36,0.00,,---,0.00,VWS V14.01,2013-07-01 21:54:00,
2013-07-01 14:59:00,93.0,62.9,29.80,SW,233,3.0,9.0,37,0.00,,---,0.00,VWS V14.01,2013-07-01 21:59:00,
2013-07-01 15:00:00,93.1,63.0,29.80,SW,214,2.0,9.0,37,0.00,,---,0.00,VWS V14.01,2013-07-01 22:00:00,
2013-07-01 15:04:00,93.4,62.5,29.80,SW,221,2.0,7.0,36,0.00,,---,0.00,VWS V14.01,2013-07-01 22:04:00,
2013-07-01 15:09:00,93.7,61.1,29.80,SW,217,0.0,7.0,34,0.00,,---,0.00,VWS V14.01,2013-07-01 22:09:00,
2013-07-01 15:14:00,93.6,61.8,29.80,West,269,4.0,7.0,35,0.00,,---,0.00,VWS V14.01,2013-07-01 22:14:00,
2013-07-01 15:15:00,93.5,61.8,29.80,SSW,206,4.0,7.0,35,0.00,,---,0.00,VWS V14.01,2013-07-01 22:15:00,
2013-07-01 15:19:00,93.0,61.3,29.80,WSW,251,3.0,7.0,35,0.00,,---,0.00,VWS V14.01,2013-07-01 22:19:00,
2013-07-01 15:24:00,92.2,60.6,29.80,SSW,209,2.0,7.0,35,0.00,,---,0.00,VWS V14.01,2013-07-01 22:24:00,
2013-07-01 15:29:00,91.8,60.3,29.80,SW,234,2.0,7.0,35,0.00,,---,0.00,VWS V14.01,2013-07-01 22:29:00,
2013-07-01 15:30:00,91.6,60.1,29.80,WSW,252,0.0,7.0,35,0.00,,---,0.00,VWS V14.01,2013-07-01 22:30:00,
2013-07-01 15:34:00,91.4,60.7,29.80,WSW,253,0.0,6.0,36,0.00,,---,0.00,VWS V14.01,2013-07-01 22:34:00,
2013-07-01 15:39:00,91.2,59.8,29.80,WSW,246,3.0,6.0,35,0.00,,---,0.00,VWS V14.01,2013-07-01 22:39:00,
2013-07-01 15:44:00,91.1,61.2,29.80,WSW,252,3.0,6.0,37,0.00,,---,0.00,VWS V14.01,2013-07-01 22:44:00,
2013-07-01 15:45:00,91.0,60.4,29.80,WSW,256,3.0,6.0,36,0.00,,---,0.00,VWS V14.01,2013-07-01 22:45:00,
2013-07-01 15:49:00,90.9,60.3,29.80,SW,234,5.0,7.0,36,0.00,,---,0.00,VWS V14.01,2013-07-01 22:49:00,
2013-07-01 15:54:00,90.5,60.7,29.80,SW,232,7.0,9.0,37,0.00,,---,0.00,VWS V14.01,2013-07-01 22:54:00,
2013-07-01 15:59:00,89.9,60.2,29.80,SW,227,4.0,9.0,37,0.00,,---,0.00,VWS V14.01,2013-07-01 22:59:00,
2013-07-01 16:00:00,89.7,59.2,29.80,SW,231,5.0,9.0,36,0.00,,---,0.00,VWS V14.01,2013-07-01 23:00:00,
2013-07-01 16:04:00,89.3,59.6,29.80,SW,225,7.0,7.0,37,0.00,,---,0.00,VWS V14.01,2013-07-01 23:04:00,
2013-07-01 16:09:00,88.8,59.2,29.80,SSW,209,4.0,7.0,37,0.00,,---,0.00,VWS V14.01,2013-07-01 23:09:00,
2013-07-01 16:14:00,88.4,58.8,29.80,SW,227,1.0,7.0,37,0.00,,---,0.00,VWS V14.01,2013-07-01 23:14:00,
2013-07-01 16:15:00,88.3,58.8,29.80,SW,234,4.0,7.0,37,0.00,,---,0.00,VWS V14.01,2013-07-01 23:15:00,
2013-07-01 16:19:00,88.2,58.7,29.80,SW,230,5.0,6.0,37,0.00,,---,0.00,VWS V14.01,2013-07-01 23:19:00,
2013-07-01 16:24:00,87.9,59.9,29.79,SW,232,5.0,8.0,39,0.00,,---,0.00,VWS V14.01,2013-07-01 23:24:00,
2013-07-01 16:29:00,87.8,59.8,29.80,SW,229,3.0,8.0,39,0.00,,---,0.00,VWS V14.01,2013-07-01 23:29:00,
2013-07-01 16:30:00,87.8,60.5,29.79,SSW,194,2.0,8.0,40,0.00,,---,0.00,VWS V14.01,2013-07-01 23:30:00,
2013-07-01 16:34:00,87.9,61.3,29.80,SW,230,0.0,4.0,41,0.00,,---,0.00,VWS V14.01,2013-07-01 23:34:00,
2013-07-01 16:39:00,87.8,61.2,29.80,SW,220,3.0,6.0,41,0.00,,---,0.00,VWS V14.01,2013-07-01 23:39:00,
2013-07-01 16:44:00,87.4,59.4,29.80,SW,231,5.0,8.0,39,0.00,,---,0.00,VWS V14.01,2013-07-01 23:44:00,
2013-07-01 16:45:00,87.3,59.3,29.80,SW,232,2.0,8.0,39,0.00,,---,0.00,VWS V14.01,2013-07-01 23:45:00,
2013-07-01 16:49:00,87.1,59.9,29.80,WSW,240,2.0,4.0,40,0.00,,---,0.00,VWS V14.01,2013-07-01 23:49:00,
2013-07-01 16:54:00,87.1,58.4,29.80,SW,217,0.0,4.0,38,0.00,,---,0.00,VWS V14.01,2013-07-01 23:54:00,
2013-07-01 16:59:00,87.0,60.5,29.80,SW,229,3.0,8.0,41,0.00,,---,0.00,VWS V14.01,2013-07-01 23:59:00,
2013-07-01 17:00:00,87.0,59.8,29.80,WSW,244,0.0,8.0,40,0.00,,---,0.00,VWS V14.01,2013-07-02 00:00:00,
2013-07-01 17:04:00,86.8,61.0,29.80,SW,234,7.0,7.0,42,0.00,,---,0.00,VWS V14.01,2013-07-02 00:04:00,
2013-07-01 17:09:00,86.6,59.4,29.80,SW,221,3.0,7.0,40,0.00,,---,0.00,VWS V14.01,2013-07-02 00:09:00,
2013-07-01 17:14:00,86.7,60.2,29.80,SW,215,1.0,9.0,41,0.00,,---,0.00,VWS V14.01,2013-07-02 00:14:00,
2013-07-01 17:15:00,86.8,60.3,29.80,SW,223,5.0,9.0,41,0.00,,---,0.00,VWS V14.01,2013-07-02 00:15:00,
2013-07-01 17:19:00,86.8,59.6,29.80,SSW,198,0.0,5.0,40,0.00,,---,0.00,VWS V14.01,2013-07-02 00:19:00,
2013-07-01 17:24:00,86.8,59.6,29.80,SW,232,2.0,9.0,40,0.00,,---,0.00,VWS V14.01,2013-07-02 00:24:00,
2013-07-01 17:29:00,86.4,59.2,29.80,WSW,237,4.0,9.0,40,0.00,,---,0.00,VWS V14.01,2013-07-02 00:29:00,
2013-07-01 17:30:00,86.3,59.2,29.80,SW,223,0.0,9.0,40,0.00,,---,0.00,VWS V14.01,2013-07-02 00:30:00,
2013-07-01 17:34:00,85.9,59.5,29.80,WSW,242,2.0,5.0,41,0.00,,---,0.00,VWS V14.01,2013-07-02 00:34:00,
2013-07-01 17:39:00,85.7,60.0,29.80,WSW,240,3.0,6.0,42,0.00,,---,0.00,VWS V14.01,2013-07-02 00:39:00,
2013-07-01 17:44:00,85.5,59.8,29.80,SW,236,6.0,9.0,42,0.00,,---,0.00,VWS V14.01,2013-07-02 00:44:00,
2013-07-01 17:45:00,85.4,59.0,29.80,SW,225,4.0,9.0,41,0.00,,---,0.00,VWS V14.01,2013-07-02 00:45:00,
2013-07-01 17:49:00,85.2,59.5,29.81,SW,219,5.0,7.0,42,0.00,,---,0.00,VWS V14.01,2013-07-02 00:49:00,
2013-07-01 17:54:00,84.9,59.3,29.81,SW,222,5.0,7.0,42,0.00,,---,0.00,VWS V14.01,2013-07-02 00:54:00,
2013-07-01 17:59:00,84.7,59.1,29.81,SW,221,3.0,7.0,42,0.00,,---,0.00,VWS V14.01,2013-07-02 00:59:00,
2013-07-01 18:00:00,84.6,58.3,29.81,South,190,2.0,7.0,41,0.00,,---,0.00,VWS V14.01,2013-07-02 01:00:00,
2013-07-01 18:04:00,84.4,58.2,29.81,SW,230,2.0,6.0,41,0.00,,---,0.00,VWS V14.01,2013-07-02 01:04:00,
2013-07-01 18:09:00,84.2,58.6,29.80,SSW,198,0.0,6.0,42,0.00,,---,0.00,VWS V14.01,2013-07-02 01:09:00,
2013-07-01 18:14:00,84.1,58.5,29.81,SSW,198,0.0,6.0,42,0.00,,---,0.00,VWS V14.01,2013-07-02 01:14:00,
2013-07-01 18:15:00,84.1,57.9,29.81,SSW,198,0.0,6.0,41,0.00,,---,0.00,VWS V14.01,2013-07-02 01:15:00,
2013-07-01 18:19:00,84.2,60.0,29.81,SSW,198,3.0,3.0,44,0.00,,---,0.00,VWS V14.01,2013-07-02 01:19:00,
2013-07-01 18:24:00,84.3,58.1,29.80,SSW,203,0.0,4.0,41,0.00,,---,0.00,VWS V14.01,2013-07-02 01:24:00,
2013-07-01 18:29:00,84.5,59.6,29.81,SSW,205,0.0,4.0,43,0.00,,---,0.00,VWS V14.01,2013-07-02 01:29:00,
2013-07-01 18:30:00,84.6,59.7,29.81,SSW,205,0.0,4.0,43,0.00,,---,0.00,VWS V14.01,2013-07-02 01:30:00,
2013-07-01 18:34:00,84.6,59.7,29.81,SSW,203,0.0,1.0,43,0.00,,---,0.00,VWS V14.01,2013-07-02 01:34:00,
2013-07-01 18:39:00,84.5,58.2,29.81,SSW,205,0.0,1.0,41,0.00,,---,0.00,VWS V14.01,2013-07-02 01:39:00,
2013-07-01 18:44:00,84.5,58.2,29.81,SSW,204,0.0,1.0,41,0.00,,---,0.00,VWS V14.01,2013-07-02 01:44:00,
2013-07-01 18:45:00,84.4,58.2,29.81,SSW,205,0.0,1.0,41,0.00,,---,0.00,VWS V14.01,2013-07-02 01:45:00,
2013-07-01 18:49:00,84.5,57.5,29.81,West,271,3.0,4.0,40,0.00,,---,0.00,VWS V14.01,2013-07-02 01:49:00,
2013-07-01 18:54:00,84.6,57.6,29.81,West,273,0.0,4.0,40,0.00,,---,0.00,VWS V14.01,2013-07-02 01:54:00,
2013-07-01 18:59:00,84.7,57.0,29.81,West,271,0.0,4.0,39,0.00,,---,0.00,VWS V14.01,2013-07-02 01:59:00,
2013-07-01 19:00:00,84.7,57.0,29.81,West,271,0.0,4.0,39,0.00,,---,0.00,VWS V14.01,2013-07-02 02:00:00,
2013-07-01 19:04:00,84.8,57.1,29.81,West,271,3.0,3.0,39,0.00,,---,0.00,VWS V14.01,2013-07-02 02:04:00,
2013-07-01 19:09:00,84.7,57.0,29.81,West,273,0.0,3.0,39,0.00,,---,0.00,VWS V14.01,2013-07-02 02:09:00,
2013-07-01 19:14:00,84.3,56.7,29.81,West,272,0.0,3.0,39,0.00,,---,0.00,VWS V14.01,2013-07-02 02:14:00,
2013-07-01 19:15:00,84.3,56.7,29.81,West,273,1.0,3.0,39,0.00,,---,0.00,VWS V14.01,2013-07-02 02:15:00,
2013-07-01 19:19:00,84.0,56.4,29.81,West,272,0.0,3.0,39,0.00,,---,0.00,VWS V14.01,2013-07-02 02:19:00,
2013-07-01 19:24:00,83.7,55.4,29.81,West,273,0.0,3.0,38,0.00,,---,0.00,VWS V14.01,2013-07-02 02:24:00,
2013-07-01 19:29:00,83.2,56.4,29.81,West,273,0.0,3.0,40,0.00,,---,0.00,VWS V14.01,2013-07-02 02:29:00,
2013-07-01 19:30:00,83.1,55.6,29.81,West,273,0.0,3.0,39,0.00,,---,0.00,VWS V14.01,2013-07-02 02:30:00,
2013-07-01 19:34:00,82.8,56.7,29.81,West,273,1.0,1.0,41,0.00,,---,0.00,VWS V14.01,2013-07-02 02:34:00,
2013-07-01 19:39:00,82.1,59.3,29.81,West,272,0.0,3.0,46,0.00,,---,0.00,VWS V14.01,2013-07-02 02:39:00,
2013-07-01 19:44:00,80.7,59.2,29.81,SW,234,4.0,6.0,48,0.00,,---,0.00,VWS V14.01,2013-07-02 02:44:00,
2013-07-01 19:45:00,80.2,58.8,29.81,WSW,238,1.0,6.0,48,0.00,,---,0.00,VWS V14.01,2013-07-02 02:45:00,
2013-07-01 19:49:00,79.1,58.3,29.82,WSW,237,4.0,5.0,49,0.00,,---,0.00,VWS V14.01,2013-07-02 02:49:00,
2013-07-01 19:54:00,77.8,59.3,29.82,SW,236,0.0,5.0,53,0.00,,---,0.00,VWS V14.01,2013-07-02 02:54:00,
2013-07-01 19:59:00,76.8,58.9,29.82,SW,236,0.0,5.0,54,0.00,,---,0.00,VWS V14.01,2013-07-02 02:59:00,
2013-07-01 20:00:00,76.6,58.7,29.82,SW,236,1.0,5.0,54,0.00,,---,0.00,VWS V14.01,2013-07-02 03:00:00,
2013-07-01 20:04:00,76.3,60.5,29.82,SW,236,1.0,4.0,58,0.00,,---,0.00,VWS V14.01,2013-07-02 03:04:00,
2013-07-01 20:09:00,76.0,60.2,29.82,SW,236,0.0,4.0,58,0.00,,---,0.00,VWS V14.01,2013-07-02 03:09:00,
2013-07-01 20:14:00,76.0,60.7,29.83,SW,236,0.0,4.0,59,0.00,,---,0.00,VWS V14.01,2013-07-02 03:14:00,
2013-07-01 20:15:00,76.0,60.7,29.82,SW,236,0.0,4.0,59,0.00,,---,0.00,VWS V14.01,2013-07-02 03:15:00,
2013-07-01 20:19:00,76.0,61.1,29.82,SW,236,0.0,0.0,60,0.00,,---,0.00,VWS V14.01,2013-07-02 03:19:00,
2013-07-01 20:24:00,76.0,61.1,29.82,SW,236,0.0,0.0,60,0.00,,---,0.00,VWS V14.01,2013-07-02 03:24:00,
2013-07-01 20:29:00,75.9,61.0,29.82,SW,236,0.0,2.0,60,0.00,,---,0.00,VWS V14.01,2013-07-02 03:29:00,
2013-07-01 20:30:00,75.9,61.0,29.83,SW,236,0.0,2.0,60,0.00,,---,0.00,VWS V14.01,2013-07-02 03:30:00,
2013-07-01 20:34:00,75.9,61.5,29.83,SW,236,0.0,0.0,61,0.00,,---,0.00,VWS V14.01,2013-07-02 03:34:00,
2013-07-01 20:39:00,75.9,61.5,29.83,SW,236,0.0,0.0,61,0.00,,---,0.00,VWS V14.01,2013-07-02 03:39:00,
2013-07-01 20:44:00,75.8,61.9,29.83,SW,236,0.0,0.0,62,0.00,,---,0.00,VWS V14.01,2013-07-02 03:44:00,
2013-07-01 20:45:00,75.7,61.8,29.83,WSW,246,0.0,0.0,62,0.00,,---,0.00,VWS V14.01,2013-07-02 03:45:00,
2013-07-01 20:49:00,75.5,61.6,29.83,SW,236,0.0,0.0,62,0.00,,---,0.00,VWS V14.01,2013-07-02 03:49:00,
2013-07-01 20:54:00,75.3,62.3,29.83,SW,236,0.0,0.0,64,0.00,,---,0.00,VWS V14.01,2013-07-02 03:54:00,
2013-07-01 20:59:00,75.1,62.1,29.83,SW,235,0.0,0.0,64,0.00,,---,0.00,VWS V14.01,2013-07-02 03:59:00,
2013-07-01 21:00:00,75.0,62.5,29.83,SW,236,0.0,0.0,65,0.00,,---,0.00,VWS V14.01,2013-07-02 04:00:00,
2013-07-01 21:01:00,75.0,62.5,29.83,SW,236,0.0,0.0,65,0.00,,---,0.00,VWS V14.01,2013-07-02 04:01:00,
2013-07-01 21:02:00,74.9,62.3,29.83,SW,236,0.0,0.0,65,0.00,,---,0.00,VWS V14.01,2013-07-02 04:02:00,
2013-07-01 21:07:00,74.7,62.2,29.83,SW,236,0.0,0.0,65,0.00,,---,0.00,VWS V14.01,2013-07-02 04:07:00,
2013-07-01 21:12:00,74.3,62.6,29.83,WSW,237,0.0,2.0,67,0.00,,---,0.00,VWS V14.01,2013-07-02 04:12:00,
2013-07-01 21:15:00,73.9,62.3,29.84,SW,236,0.0,2.0,67,0.00,,---,0.00,VWS V14.01,2013-07-02 04:15:00,
2013-07-01 21:17:00,73.8,62.2,29.84,SW,236,0.0,0.0,67,0.00,,---,0.00,VWS V14.01,2013-07-02 04:17:00,
2013-07-01 21:22:00,73.3,62.1,29.84,SW,236,0.0,0.0,68,0.00,,---,0.00,VWS V14.01,2013-07-02 04:22:00,
2013-07-01 21:27:00,73.1,61.9,29.84,SW,236,0.0,0.0,68,0.00,,---,0.00,VWS V14.01,2013-07-02 04:27:00,
2013-07-01 21:30:00,72.9,61.7,29.84,SW,236,0.0,0.0,68,0.00,,---,0.00,VWS V14.01,2013-07-02 04:30:00,
2013-07-01 21:32:00,72.8,61.6,29.84,SW,236,0.0,0.0,68,0.00,,---,0.00,VWS V14.01,2013-07-02 04:32:00,
2013-07-01 21:37:00,72.6,61.9,29.85,SW,236,0.0,0.0,69,0.00,,---,0.00,VWS V14.01,2013-07-02 04:37:00,
2013-07-01 21:42:00,72.4,61.7,29.85,SW,236,0.0,0.0,69,0.00,,---,0.00,VWS V14.01,2013-07-02 04:42:00,
2013-07-01 21:45:00,72.3,62.0,29.85,SW,236,0.0,0.0,70,0.00,,---,0.00,VWS V14.01,2013-07-02 04:45:00,
2013-07-01 21:47:00,72.3,62.0,29.85,SW,236,0.0,0.0,70,0.00,,---,0.00,VWS V14.01,2013-07-02 04:47:00,
2013-07-01 21:52:00,72.1,61.8,29.85,SW,236,0.0,0.0,70,0.00,,---,0.00,VWS V14.01,2013-07-02 04:52:00,
2013-07-01 21:57:00,71.9,62.0,29.85,WSW,237,0.0,0.0,71,0.00,,---,0.00,VWS V14.01,2013-07-02 04:57:00,
2013-07-01 22:00:00,71.8,61.9,29.85,SW,236,0.0,0.0,71,0.00,,---,0.00,VWS V14.01,2013-07-02 05:00:00,
2013-07-01 22:02:00,71.8,61.9,29.84,SW,236,0.0,0.0,71,0.00,,---,0.00,VWS V14.01,2013-07-02 05:02:00,
2013-07-01 22:07:00,71.7,62.2,29.84,WSW,237,0.0,0.0,72,0.00,,---,0.00,VWS V14.01,2013-07-02 05:07:00,
2013-07-01 22:12:00,71.5,62.4,29.84,WSW,237,0.0,0.0,73,0.00,,---,0.00,VWS V14.01,2013-07-02 05:12:00,
2013-07-01 22:15:00,71.4,62.3,29.84,WSW,237,0.0,0.0,73,0.00,,---,0.00,VWS V14.01,2013-07-02 05:15:00,
2013-07-01 22:17:00,71.3,62.2,29.84,SW,236,0.0,0.0,73,0.00,,---,0.00,VWS V14.01,2013-07-02 05:17:00,
2013-07-01 22:22:00,71.2,62.5,29.85,SW,236,0.0,0.0,74,0.00,,---,0.00,VWS V14.01,2013-07-02 05:22:00,
2013-07-01 22:27:00,71.0,62.7,29.85,WSW,237,0.0,0.0,75,0.00,,---,0.00,VWS V14.01,2013-07-02 05:27:00,
2013-07-01 22:30:00,71.0,62.7,29.85,SW,236,0.0,0.0,75,0.00,,---,0.00,VWS V14.01,2013-07-02 05:30:00,
2013-07-01 22:32:00,70.9,62.6,29.85,WSW,237,0.0,0.0,75,0.00,,---,0.00,VWS V14.01,2013-07-02 05:32:00,
2013-07-01 22:37:00,70.7,62.8,29.85,WSW,237,0.0,0.0,76,0.00,,---,0.00,VWS V14.01,2013-07-02 05:37:00,
2013-07-01 22:42:00,70.4,62.5,29.85,SW,236,0.0,0.0,76,0.00,,---,0.00,VWS V14.01,2013-07-02 05:42:00,
2013-07-01 22:45:00,70.2,62.3,29.85,WSW,237,0.0,0.0,76,0.00,,---,0.00,VWS V14.01,2013-07-02 05:45:00,
2013-07-01 22:47:00,70.1,62.2,29.85,WSW,237,0.0,0.0,76,0.00,,---,0.00,VWS V14.01,2013-07-02 05:47:00,
2013-07-01 22:52:00,69.9,62.4,29.85,SW,236,0.0,0.0,77,0.00,,---,0.00,VWS V14.01,2013-07-02 05:52:00,
2013-07-01 22:57:00,69.8,61.9,29.85,WSW,237,0.0,0.0,76,0.00,,---,0.00,VWS V14.01,2013-07-02 05:57:00,
2013-07-01 23:00:00,69.7,62.2,29.85,WSW,237,0.0,0.0,77,0.00,,---,0.00,VWS V14.01,2013-07-02 06:00:00,
2013-07-01 23:02:00,69.7,62.2,29.84,WSW,237,0.0,0.0,77,0.00,,---,0.00,VWS V14.01,2013-07-02 06:02:00,
2013-07-01 23:07:00,69.6,62.1,29.84,WSW,237,0.0,0.0,77,0.00,,---,0.00,VWS V14.01,2013-07-02 06:07:00,
2013-07-01 23:12:00,69.5,62.0,29.84,SW,236,0.0,0.0,77,0.00,,---,0.00,VWS V14.01,2013-07-02 06:12:00,
2013-07-01 23:15:00,69.5,62.0,29.84,WSW,237,0.0,0.0,77,0.00,,---,0.00,VWS V14.01,2013-07-02 06:15:00,
2013-07-01 23:17:00,69.4,61.9,29.84,SW,236,0.0,0.0,77,0.00,,---,0.00,VWS V14.01,2013-07-02 06:17:00,
2013-07-01 23:22:00,69.4,61.9,29.84,SW,236,0.0,0.0,77,0.00,,---,0.00,VWS V14.01,2013-07-02 06:22:00,
2013-07-01 23:27:00,69.3,61.4,29.84,WSW,237,0.0,0.0,76,0.00,,---,0.00,VWS V14.01,2013-07-02 06:27:00,
2013-07-01 23:30:00,69.2,61.0,29.84,WSW,237,0.0,0.0,75,0.00,,---,0.00,VWS V14.01,2013-07-02 06:30:00,
2013-07-01 23:32:00,69.2,60.6,29.84,SW,236,0.0,0.0,74,0.00,,---,0.00,VWS V14.01,2013-07-02 06:32:00,
2013-07-01 23:37:00,69.0,59.6,29.83,SW,236,0.0,0.0,72,0.00,,---,0.00,VWS V14.01,2013-07-02 06:37:00,
2013-07-01 23:42:00,68.9,58.3,29.84,WSW,237,0.0,0.0,69,0.00,,---,0.00,VWS V14.01,2013-07-02 06:42:00,
2013-07-01 23:45:00,68.8,57.4,29.84,WSW,237,0.0,0.0,67,0.00,,---,0.00,VWS V14.01,2013-07-02 06:45:00,
2013-07-01 23:47:00,68.8,57.4,29.84,SW,236,0.0,0.0,67,0.00,,---,0.00,VWS V14.01,2013-07-02 06:47:00,
2013-07-01 23:52:00,68.7,57.3,29.84,WSW,237,0.0,0.0,67,0.00,,---,0.00,VWS V14.01,2013-07-02 06:52:00,
2013-07-01 23:57:00,68.7,57.3,29.84,WSW,237,0.0,0.0,67,0.00,,---,0.00,VWS V14.01,2013-07-02 06:57:00,